[[{"header":{"parameterUnit":"m.s-1","parameterCategory":1,"la1":30.2991,"la2":30.254,"lo1":-89.0895,"lo2":-89.0444,"dy":0.0017,"dx":0.0017,"nx":28,"ny":28,"refTime":"2024-04-17T03:00:00:Z","depth":0,"parameterNumber":2,"parameterNumberName":"U-component_of_WINDS"},"data":[0,0,0,0,0,0,0,0,0,0,0,0,0,0,0,0,0,0,0,0,0,0,0,0,0,0,0,0,0,0,0,0,0,0,0,0,0,0,0,0,0,0,0,0,0,0,0,0,0,0,0,0,0,0,0,0,0,0,-3.3782,-3.3781,0,-3.3708,-3.3708,-3.3707,-3.3613,-3.3611,-3.361,-3.3608,-3.3531,-3.353,-3.3529,0,0,0,0,0,0,0,0,0,0,0,0,0,-3.3839,-3.3838,-3.3782,-3.3781,-3.378,-3.3708,-3.3707,-3.3706,-3.3613,-3.3611,-3.3609,-3.3608,-3.3531,-3.353,-3.3529,0,0,0,0,0,0,0,0,0,0,0,0,0,-3.3795,-3.3838,-3.3782,-3.3725,-3.3719,-3.3709,-3.3707,-3.3706,-3.3613,-3.3611,-3.3609,-3.3607,-3.3531,-3.353,-3.3529,-3.3569,0,0,-3.3526,-3.3526,0,0,0,0,0,0,0,0,-3.3797,-3.3792,-3.3734,-3.3729,-3.3722,-3.3667,-3.3699,-3.366,-3.3614,-3.3653,-3.3608,-3.3606,-3.3578,-3.3573,-3.3564,-3.3565,-3.3562,-3.3526,-3.3526,-3.3525,-3.3525,0,0,0,0,0,0,0,-3.38,-3.3795,-3.3753,-3.3733,-3.3726,-3.3702,-3.3693,-3.3691,-3.3629,-3.365,-3.3643,-3.3636,-3.3574,-3.3565,-3.3562,-3.356,-3.3526,-3.3525,-3.3525,-3.3524,-3.3589,-3.3591,0,0,0,0,0,0,-3.3812,-3.3798,-3.3755,-3.375,-3.3755,-3.3703,-3.3693,-3.3687,-3.3629,-3.3618,-3.3638,-3.3631,-3.3568,-3.3563,-3.3559,-3.3599,-3.3525,-3.3524,-3.3524,-3.3586,-3.3589,-3.3592,0,0,0,0,0,0,-3.3814,-3.3809,-3.3758,-3.3772,-3.3764,-3.3704,-3.3699,-3.3687,-3.3678,-3.362,-3.3608,-3.364,-3.3566,-3.356,-3.3567,-3.3595,-3.3524,-3.3523,-3.3584,-3.3587,-3.359,-3.3683,0,0,0,0,0,0,-3.3816,-3.381,-3.3825,-3.3774,-3.3764,-3.3768,-3.37,-3.3687,-3.3677,-3.3668,-3.3619,-3.3608,-3.3564,-3.3569,-3.3566,-3.3593,-3.3522,-3.3581,-3.3585,-3.3589,-3.3677,-3.3689,-3.3699,0,0,0,0,0,-3.3818,-3.3854,-3.3826,-3.3822,-3.3781,-3.377,-3.3764,-3.3713,-3.368,-3.3693,-3.3656,-3.361,-3.3593,-3.357,-3.3566,-3.3593,-3.3579,-3.3584,-3.3589,-3.3672,-3.3687,-3.3699,0,0,0,0,0,0,-3.391,-3.3846,-3.3815,-3.3835,-3.3809,-3.3754,-3.377,-3.373,-3.3712,-3.3705,-3.3641,-3.3631,-3.3645,-3.362,-3.3595,-3.3628,-3.3579,-3.3584,-3.3644,-3.3657,-3.3668,-3.3673,-3.3521,0,0,0,0,0,-3.3932,-3.393,-3.3874,-3.3897,-3.3885,-3.3831,-3.3824,-3.3787,-3.3757,-3.3745,-3.3708,-3.368,-3.3668,-3.3661,-3.3647,-3.3673,-3.366,-3.369,-3.3701,-3.3711,-3.3715,-3.3726,-3.3738,-3.3609,-3.3609,-3.3608,0,0,-3.3979,-3.3944,-3.3945,-3.3914,-3.389,-3.3887,-3.3822,-3.3822,-3.3819,-3.3744,-3.3748,-3.3721,-3.3685,-3.3702,-3.3707,-3.3681,-3.3748,-3.3717,-3.3726,-3.3724,-3.3732,-3.3745,-3.3756,-3.3612,-3.3612,-3.3611,0,0,-3.4062,-3.4036,-3.4051,-3.4028,-3.3992,-3.3955,-3.3959,-3.3911,-3.389,-3.3893,-3.3837,-3.3832,-3.3814,-3.379,-3.3776,-3.3851,-3.3808,-3.3848,-3.3906,-3.3918,-3.3928,-3.3936,-3.3962,-3.3972,-3.3853,-3.3853,-3.3854,0,-3.4123,-3.4118,-3.4064,-3.4068,-3.4056,-3.3989,-3.4004,-3.3984,-3.3945,-3.3937,-3.3909,-3.3884,-3.3856,-3.3865,-3.3884,-3.3875,-3.3876,-3.3853,-3.3931,-3.3939,-3.3946,-3.397,-3.398,-3.3858,-3.3858,-3.3857,-3.3857,0,-3.4196,-3.4193,-3.421,-3.4175,-3.4164,-3.4174,-3.4121,-3.4117,-3.4081,-3.4047,-3.4051,-3.4014,-3.3991,-3.3991,-3.3956,-3.3996,-3.398,-3.3943,-3.3892,-3.3965,-3.3985,-3.3994,-3.3866,-3.3864,-3.3862,-3.3861,0,0,-3.4333,-3.4268,-3.4275,-3.4258,-3.4213,-3.421,-3.4216,-3.4195,-3.4192,-3.4167,-3.417,-3.4156,-3.4121,-3.4105,-3.4067,-3.4077,-3.4137,-3.4037,-3.4035,-3.4056,-3.4177,-3.4204,-3.4216,-3.4109,-3.411,-3.4111,-3.4179,0,-3.4406,-3.4414,-3.4366,-3.4386,-3.4382,-3.4319,-3.4324,-3.4297,-3.4266,-3.4258,-3.4223,-3.4213,-3.4168,-3.4158,-3.4165,-3.4128,-3.416,-3.4123,-3.4109,-3.4109,-3.4118,-3.4227,-3.4256,-3.4321,-3.4187,-3.4189,-3.419,0,-3.4492,-3.4473,-3.4494,-3.4448,-3.4444,-3.445,-3.4426,-3.4419,-3.4387,-3.4364,-3.4346,-3.4302,-3.4304,-3.4258,-3.4259,-3.4235,-3.4226,-3.4207,-3.4208,-3.4204,-3.4153,-3.4223,-3.4341,-3.4351,-3.4202,-3.4201,-3.42,0,-3.4589,-3.4568,-3.4577,-3.4565,-3.4512,-3.4517,-3.4495,-3.4461,-3.4451,-3.443,-3.4423,-3.4402,-3.4391,-3.4375,-3.4327,-3.4298,-3.4333,-3.4283,-3.4312,-3.4313,-3.4321,-3.4321,-3.4438,-3.4319,-3.4319,-3.4318,-3.4318,0,-3.4675,-3.4689,-3.462,-3.4625,-3.4639,-3.4584,-3.4599,-3.457,-3.4541,-3.4539,-3.4483,-3.4482,-3.4419,-3.4411,-3.4373,-3.4379,-3.4374,-3.4354,-3.4343,-3.4358,-3.436,-3.435,-3.4344,-3.4321,-3.432,-3.432,-3.4319,0,-3.4784,-3.4738,-3.4744,-3.4694,-3.4681,-3.4694,-3.465,-3.4653,-3.4618,-3.4617,-3.4613,-3.4559,-3.4546,-3.4497,-3.4472,-3.4447,-3.4464,-3.4445,-3.4475,-3.4468,-3.45,-3.4497,-3.4613,-3.4625,-3.4501,-3.4502,-3.4503,0,-3.4841,-3.4851,-3.4802,-3.4797,-3.4778,-3.4771,-3.476,-3.4706,-3.4698,-3.4662,-3.4668,-3.4652,-3.4635,-3.4618,-3.4576,-3.4556,-3.4535,-3.4577,-3.4531,-3.4546,-3.4533,-3.4533,-3.4533,-3.4586,-3.4588,-3.4589,-3.459,0,-3.4947,-3.4924,-3.4912,-3.4892,-3.4881,-3.4862,-3.484,-3.4839,-3.4779,-3.4772,-3.4759,-3.4747,-3.4722,-3.4705,-3.4679,-3.4655,-3.4612,-3.4605,-3.4611,-3.4625,-3.4641,-3.4631,-3.45,-3.4602,-3.4601,-3.46,-3.46,-3.4599,-3.503,-3.5036,-3.5002,-3.499,-3.4968,-3.4949,-3.4949,-3.4915,-3.4903,-3.4879,-3.4848,-3.4839,-3.4805,-3.4766,-3.4745,-3.4737,-3.4713,-3.4721,-3.4723,-3.4725,-3.4732,-3.4645,-3.4732,-3.4731,-3.4731,-3.4731,-3.473,0,-3.5132,-3.5108,-3.5097,-3.5068,-3.5059,-3.5021,-3.4995,-3.4989,-3.4982,-3.4955,-3.494,-3.4925,-3.4909,-3.4866,-3.4845,-3.4846,-3.4826,-3.4842,-3.4841,-3.4835,-3.4755,-3.4752,-3.4859,-3.4859,-3.4859,-3.4859,-3.4859,-3.4859,-3.5184,-3.519,-3.5163,-3.5158,-3.5133,-3.5124,-3.5112,-3.5094,-3.5072,-3.5058,-3.5044,-3.5017,-3.4983,-3.496,-3.4943,-3.493,-3.4924,-3.4947,-3.4928,-3.4854,-3.4841,-3.483,-3.4826,-3.4947,-3.4947,-3.5009,-3.5009,-3.501]},{"header":{"parameterUnit":"m.s-1","parameterCategory":1,"la1":30.2991,"la2":30.254,"lo1":-89.0895,"lo2":-89.0444,"dy":0.0017,"dx":0.0017,"nx":28,"ny":28,"refTime":"2024-04-17T03:00:00:Z","depth":0,"parameterNumber":3,"parameterNumberName":"V-component_of_WINDS"},"data":[0,0,0,0,0,0,0,0,0,0,0,0,0,0,0,0,0,0,0,0,0,0,0,0,0,0,0,0,0,0,0,0,0,0,0,0,0,0,0,0,0,0,0,0,0,0,0,0,0,0,0,0,0,0,0,0,0,0,2.1381,2.1381,0,2.137,2.137,2.137,2.1366,2.1366,2.1366,2.1366,2.1355,2.1355,2.1354,0,0,0,0,0,0,0,0,0,0,0,0,0,2.1399,2.1398,2.1381,2.1381,2.1381,2.137,2.137,2.137,2.1366,2.1366,2.1366,2.1366,2.1355,2.1355,2.1354,0,0,0,0,0,0,0,0,0,0,0,0,0,2.139,2.1398,2.1381,2.1377,2.1377,2.137,2.137,2.137,2.1366,2.1366,2.1366,2.1366,2.1355,2.1355,2.1354,2.135,0,0,2.1353,2.1352,0,0,0,0,0,0,0,0,2.139,2.1389,2.1378,2.1378,2.1377,2.1369,2.1372,2.1363,2.1366,2.137,2.1366,2.1366,2.136,2.1359,2.1357,2.135,2.1349,2.1353,2.1352,2.1352,2.1352,0,0,0,0,0,0,0,2.1391,2.139,2.1377,2.1378,2.1377,2.1377,2.1375,2.1371,2.1365,2.137,2.1369,2.1368,2.1359,2.1357,2.1356,2.1349,2.1353,2.1352,2.1352,2.1352,2.1339,2.1339,0,0,0,0,0,0,2.1392,2.139,2.1377,2.1376,2.1384,2.1376,2.1375,2.1372,2.1365,2.1364,2.1368,2.1368,2.1358,2.1357,2.1356,2.1351,2.1352,2.1352,2.1351,2.1339,2.1339,2.1339,0,0,0,0,0,0,2.1392,2.1391,2.1378,2.1383,2.1381,2.1376,2.1372,2.1372,2.1369,2.1364,2.1363,2.1367,2.1358,2.1357,2.1352,2.1351,2.1351,2.1351,2.1339,2.1339,2.1339,2.1342,0,0,0,0,0,0,2.1393,2.1391,2.1389,2.1383,2.1381,2.1373,2.1372,2.1371,2.1368,2.1368,2.1362,2.1361,2.1358,2.1353,2.1351,2.135,2.1351,2.1339,2.1339,2.1339,2.1342,2.1342,2.1342,0,0,0,0,0,2.1394,2.139,2.1389,2.1388,2.1379,2.1373,2.1372,2.1368,2.1368,2.1367,2.1363,2.1361,2.1351,2.1352,2.1351,2.1349,2.1339,2.1339,2.1339,2.1342,2.1342,2.1342,0,0,0,0,0,0,2.1397,2.139,2.1388,2.1383,2.1379,2.1373,2.137,2.1369,2.1364,2.1364,2.136,2.1359,2.1354,2.1351,2.1352,2.1346,2.1345,2.1345,2.1348,2.1348,2.1348,2.1348,2.135,0,0,0,0,0,2.1397,2.1393,2.1387,2.1383,2.1381,2.1376,2.1373,2.1371,2.1366,2.1365,2.1361,2.1357,2.1352,2.135,2.1346,2.1341,2.134,2.134,2.134,2.134,2.134,2.1337,2.1337,2.1339,2.1339,2.1339,0,0,2.1397,2.1392,2.139,2.1383,2.138,2.1376,2.1374,2.137,2.1368,2.1364,2.1359,2.1356,2.1351,2.1347,2.1345,2.1344,2.1339,2.134,2.134,2.1339,2.1337,2.1337,2.1337,2.1338,2.1339,2.1339,0,0,2.1395,2.1391,2.1387,2.1384,2.1379,2.1376,2.1375,2.1369,2.1367,2.1362,2.136,2.1357,2.1349,2.1346,2.1344,2.1341,2.134,2.134,2.134,2.1338,2.1338,2.1338,2.1338,2.1337,2.134,2.134,2.134,0,2.1395,2.1389,2.1386,2.1382,2.1379,2.1376,2.1373,2.137,2.1363,2.1362,2.1361,2.1353,2.1349,2.1344,2.1344,2.1341,2.1341,2.1341,2.1339,2.1338,2.1338,2.1338,2.1337,2.134,2.134,2.134,2.134,0,2.1391,2.1387,2.1384,2.1379,2.1376,2.1372,2.1368,2.1366,2.1364,2.1361,2.1356,2.1352,2.1347,2.1346,2.1343,2.134,2.134,2.1339,2.1339,2.1338,2.1338,2.1337,2.134,2.134,2.134,2.134,0,0,2.139,2.1383,2.1382,2.138,2.1374,2.1371,2.1367,2.1363,2.1361,2.1357,2.1354,2.1348,2.1347,2.1344,2.1342,2.134,2.1339,2.134,2.1339,2.134,2.1336,2.1337,2.1336,2.1338,2.1338,2.1338,2.1336,0,2.1388,2.1381,2.1378,2.1373,2.1369,2.1367,2.1364,2.136,2.1357,2.1354,2.1351,2.1347,2.1346,2.1345,2.1343,2.134,2.1338,2.134,2.1335,2.1335,2.1337,2.1336,2.1337,2.1335,2.1336,2.1336,2.1336,0,2.1384,2.138,2.1375,2.137,2.1368,2.1366,2.1361,2.1358,2.1354,2.1352,2.135,2.1347,2.1344,2.1344,2.1339,2.134,2.1338,2.1336,2.1336,2.1336,2.1336,2.1336,2.1335,2.1335,2.1335,2.1335,2.1336,0,2.1384,2.1378,2.1374,2.1372,2.1366,2.1364,2.1362,2.1358,2.1356,2.1352,2.135,2.1346,2.1344,2.1341,2.1338,2.1338,2.1334,2.1333,2.1333,2.1333,2.1332,2.1332,2.1331,2.133,2.133,2.133,2.133,0,2.1382,2.1379,2.1374,2.1372,2.1368,2.1365,2.1361,2.1359,2.1355,2.1353,2.135,2.1348,2.1344,2.1341,2.1338,2.1335,2.1334,2.1332,2.1332,2.1333,2.1333,2.1331,2.1331,2.133,2.133,2.133,2.133,0,2.1382,2.1378,2.1374,2.1369,2.1368,2.1366,2.1361,2.1359,2.1357,2.1353,2.1352,2.1348,2.1344,2.1341,2.1336,2.1335,2.1331,2.1331,2.1333,2.1332,2.1332,2.1332,2.133,2.1329,2.1329,2.1329,2.1329,0,2.138,2.1378,2.1373,2.1371,2.1369,2.1365,2.1363,2.136,2.1358,2.1353,2.1351,2.1348,2.1345,2.1339,2.1336,2.1332,2.1331,2.1331,2.1331,2.1332,2.1332,2.1332,2.1332,2.1331,2.1331,2.1331,2.1331,0,2.1379,2.1377,2.1374,2.137,2.1368,2.1365,2.1361,2.136,2.1356,2.1354,2.135,2.1348,2.1343,2.1339,2.1336,2.1333,2.1332,2.1331,2.1331,2.1332,2.1333,2.1332,2.1333,2.1331,2.1331,2.1331,2.1331,2.1331,2.1378,2.1376,2.1372,2.1369,2.1366,2.1363,2.1361,2.1358,2.1355,2.1351,2.135,2.1346,2.1343,2.1337,2.1335,2.1332,2.1332,2.1331,2.1331,2.1331,2.1331,2.1333,2.1332,2.1332,2.1332,2.1332,2.1332,0,2.1376,2.1374,2.1371,2.1367,2.1364,2.1363,2.136,2.1357,2.1354,2.1351,2.1348,2.1344,2.1341,2.1338,2.1334,2.1333,2.1332,2.1332,2.1332,2.1332,2.1332,2.1333,2.1333,2.1333,2.1333,2.1333,2.1333,2.1333,2.1375,2.1372,2.137,2.1366,2.1363,2.136,2.1358,2.1355,2.1353,2.1349,2.1346,2.1344,2.1341,2.1337,2.1334,2.1333,2.1332,2.1332,2.1331,2.1332,2.1332,2.1331,2.1332,2.1332,2.1332,2.1331,2.1331,2.1331]}]]